EW4329 Weather Reports


time (UTC)temp
C
wind
direction
speed
KPH
gust
KPH
rain 1hr
cm
rain 24hr
cm
rain mn
cm
humidity
%
barometer
mb
20260505093052 -1 53 8.0 11.3 0.00 0.00 0.00 77 1015.2
20260505091555 -1 60 6.4 11.3 0.00 0.00 0.00 78 1015.3
20260505090048 -1 39 8.0 16.1 0.00 0.00 0.00 77 1015.1
20260505084553 -1 58 8.0 11.3 0.00 0.00 0.00 76 1015.5
20260505083055 -1 74 4.8 8.0 0.00 0.00 0.00 76 1015.4
20260505081540 -1 88 6.4 11.3 0.00 0.00 0.00 75 1015.3
20260505080038 -1 108 4.8 12.9 0.00 0.00 0.00 74 1015.3
20260505074535 -1 68 0.0 3.2 0.00 0.00 0.00 77 1015.2
20260505073032 -1 117 0.0 1.6 0.00 0.00 0.00 76 1015.3
20260505071528 0 118 0.0 4.8 0.00 0.00 0.00 73 1015.2
20260505070024 0 71 3.2 4.8 0.00 0.00 0.00 72 1015.1
20260505064529 0 69 0.0 4.8 0.00 0.00 0.00 69 1015.1
20260505063016 1 60 3.2 6.4 0.00 0.00 0.00 67 1015.1
20260505061513 1 73 3.2 4.8 0.00 0.00 0.00 67 1015.0
20260505060012 2 76 1.6 3.2 0.00 0.00 0.00 64 1015.0
20260505054516 2 91 1.6 4.8 0.00 0.00 0.00 64 1014.8
20260505053005 2 56 3.2 4.8 0.00 0.00 0.00 64 1014.9
20260505051504 3 61 1.6 4.8 0.00 0.00 0.00 62 1014.8
20260505050109 3 68 1.6 4.8 0.00 0.00 0.00 58 1014.9
20260505041607 3 129 1.6 4.8 0.00 0.00 0.00 54 1014.6
20260505034609 4 101 3.2 12.9 0.00 0.00 0.00 51 1014.5
20260505033054 5 131 3.2 9.7 0.00 0.00 0.00 50 1014.3
20260505031552 5 343 0.0 9.7 0.00 0.00 0.00 50 1014.0
20260505030059 5 60 4.8 11.3 0.00 0.00 0.00 50 1013.5
20260505024549 5 62 8.0 16.1 0.00 0.00 0.00 49 1013.3
20260505023045 6 17 1.6 9.7 0.00 0.00 0.00 50 1013.1
20260505021542 6 40 9.7 32.2 0.00 0.00 0.00 51 1012.8
20260505020053 6 16 6.4 22.5 0.00 0.00 0.00 53 1012.6
20260505014541 6 68 9.7 30.6 0.00 0.00 0.00 52 1012.5
20260505013041 7 68 8.0 27.4 0.00 0.00 0.00 55 1012.4
20260505011537 7 13 9.7 27.4 0.00 0.00 0.00 56 1012.3
20260505010043 7 45 14.5 27.4 0.00 0.00 0.00 55 1012.4
20260505004555 7 37 19.3 30.6 0.00 0.00 0.00 54 1012.3
20260505003034 8 55 14.5 24.1 0.00 0.00 0.00 53 1012.1
20260505001536 8 75 16.1 25.7 0.00 0.00 0.00 53 1011.9
20260505000036 8 18 16.1 27.4 0.00 0.00 0.00 52 1011.6
20260504234532 8 20 12.9 25.7 0.00 0.00 0.00 51 1011.4
20260504233032 9 28 12.9 27.4 0.00 0.00 0.00 51 1011.1
20260504231535 10 46 12.9 24.1 0.00 0.00 0.00 50 1010.9
20260504230031 10 46 11.3 24.1 0.00 0.00 0.00 46 1010.8
20260504224534 10 71 12.9 27.4 0.00 0.00 0.00 46 1010.7
20260504223028 10 34 9.7 24.1 0.00 0.00 0.00 45 1010.6
20260504221535 10 29 9.7 27.4 0.00 0.00 0.00 46 1010.6
20260504220024 10 36 14.5 24.1 0.00 0.00 0.00 43 1010.8
20260504214523 10 58 12.9 20.9 0.00 0.00 0.00 44 1010.8
20260504213035 10 88 12.9 17.7 0.00 0.00 0.00 44 1010.7
20260504211520 10 54 8.0 24.1 0.00 0.00 0.00 50 1010.7
20260504210018 10 52 8.0 20.9 0.00 0.00 0.00 47 1010.7
20260504204516 10 54 8.0 22.5 0.00 0.00 0.00 49 1010.8
20260504203016 10 37 11.3 22.5 0.00 0.00 0.00 48 1010.7
20260504201515 9 23 8.0 16.1 0.00 0.00 0.00 49 1010.8
20260504200015 8 40 9.7 17.7 0.00 0.00 0.00 49 1010.8
20260504194518 8 56 14.5 25.7 0.00 0.00 0.00 50 1010.7
20260504193016 9 47 14.5 19.3 0.00 0.00 0.00 50 1010.8
20260504191510 8 40 12.9 24.1 0.00 0.00 0.00 53 1010.9
20260504190014 8 34 12.9 22.5 0.00 0.00 0.00 51 1010.7
20260504184526 8 68 9.7 22.5 0.00 0.00 0.00 52 1010.8
20260504183007 9 31 12.9 22.5 0.00 0.00 0.00 50 1010.9
20260504181507 9 26 11.3 24.1 0.00 0.00 0.00 49 1011.0
20260504180005 9 7 12.9 19.3 0.00 0.00 0.00 49 1010.9
20260504174504 9 23 8.0 24.1 0.00 0.00 0.00 50 1011.0
20260504173009 8 52 9.7 20.9 0.00 0.00 0.00 49 1011.1
20260504171501 8 30 8.0 24.1 0.00 0.00 0.00 49 1011.1